When you browse on this site, cookies collect data to enhance your experience and personalize the content and advertising you see.
Visit our Privacy Policy to learn more. By continuing to use the site, you agree to this use of cookies and data.

Stündliche Wetter Rhodos

Heute, 12 August, Mittwoch

Zeit Temperatur Niederschläge Wind Luftdruck Luftfeuchtigkeit
00:00 +25°C° 0 mm 5 m/S 728 mmHg 67%
01:00 +25°C° 0 mm 4 m/S 728 mmHg 67%
02:00 +25°C° 0 mm 4 m/S 728 mmHg 66%
03:00 +25°C° 0 mm 3 m/S 727 mmHg 64%
04:00 +25°C° 0 mm 3 m/S 727 mmHg 62%
05:00 +26°C° 0 mm 3 m/S 727 mmHg 60%
06:00 +28°C° 0 mm 3 m/S 727 mmHg 52%
07:00 +30°C° 0 mm 3 m/S 727 mmHg 44%
08:00 +34°C° 0 mm 3 m/S 728 mmHg 36%
09:00 +35°C° 0 mm 3 m/S 728 mmHg 34%
10:00 +36°C° 0 mm 3 m/S 728 mmHg 32%
11:00 +37°C° 0 mm 3 m/S 728 mmHg 30%
12:00 +37°C° 0 mm 4 m/S 728 mmHg 29%
13:00 +37°C° 0 mm 4 m/S 728 mmHg 28%
14:00 +38°C° 0 mm 4 m/S 728 mmHg 28%
15:00 +37°C° 0 mm 4 m/S 728 mmHg 29%
16:00 +36°C° 0 mm 4 m/S 728 mmHg 31%
17:00 +35°C° 0 mm 4 m/S 727 mmHg 33%
18:00 +33°C° 0 mm 4 m/S 728 mmHg 40%
19:00 +29°C° 0 mm 4 m/S 728 mmHg 47%
20:00 +27°C° 0 mm 3 m/S 728 mmHg 53%
21:00 +27°C° 0 mm 4 m/S 728 mmHg 52%
22:00 +27°C° 0 mm 4 m/S 728 mmHg 51%
23:00 +27°C° 0 mm 4 m/S 728 mmHg 50%

Morgen, 13 August, Donnerstag

Zeit Temperatur Niederschläge Wind Luftdruck Luftfeuchtigkeit
00:00 +27°C° 0 mm 4 m/S 728 mmHg 49%
01:00 +27°C° 0 mm 4 m/S 727 mmHg 48%
02:00 +27°C° 0 mm 4 m/S 727 mmHg 47%
03:00 +27°C° 0 mm 4 m/S 727 mmHg 47%
04:00 +27°C° 0 mm 4 m/S 727 mmHg 47%
05:00 +27°C° 0 mm 4 m/S 727 mmHg 47%
06:00 +29°C° 0 mm 4 m/S 727 mmHg 40%
07:00 +33°C° 0 mm 3 m/S 727 mmHg 33%
08:00 +35°C° 0 mm 3 m/S 727 mmHg 27%
09:00 +36°C° 0 mm 3 m/S 728 mmHg 24%
10:00 +38°C° 0 mm 3 m/S 728 mmHg 22%
11:00 +39°C° 0 mm 3 m/S 728 mmHg 19%
12:00 +40°C° 0 mm 4 m/S 728 mmHg 19%
13:00 +40°C° 0 mm 4 m/S 727 mmHg 20%
14:00 +40°C° 0 mm 5 m/S 727 mmHg 20%
15:00 +39°C° 0 mm 5 m/S 727 mmHg 22%
16:00 +38°C° 0 mm 6 m/S 727 mmHg 24%
17:00 +36°C° 0 mm 6 m/S 727 mmHg 25%
18:00 +33°C° 0 mm 6 m/S 727 mmHg 34%
19:00 +30°C° 0 mm 5 m/S 727 mmHg 42%
20:00 +27°C° 0 mm 5 m/S 727 mmHg 50%
21:00 +27°C° 0 mm 5 m/S 727 mmHg 50%
22:00 +27°C° 0 mm 4 m/S 727 mmHg 50%
23:00 +27°C° 0 mm 4 m/S 727 mmHg 50%

übermorgen, 14 August, Freitag

Zeit Temperatur Niederschläge Wind Luftdruck Luftfeuchtigkeit
00:00 +27°C° 0 mm 4 m/S 727 mmHg 51%
01:00 +26°C° 0 mm 4 m/S 727 mmHg 52%
02:00 +26°C° 0 mm 3 m/S 726 mmHg 53%
03:00 +25°C° 0 mm 4 m/S 726 mmHg 52%
04:00 +25°C° 0 mm 4 m/S 726 mmHg 51%
05:00 +25°C° 0 mm 4 m/S 726 mmHg 49%
06:00 +27°C° 0 mm 3 m/S 726 mmHg 43%
07:00 +30°C° 0 mm 3 m/S 726 mmHg 37%
08:00 +33°C° 0 mm 3 m/S 726 mmHg 31%
09:00 +35°C° 0 mm 3 m/S 726 mmHg 27%
10:00 +37°C° 0 mm 3 m/S 727 mmHg 24%
11:00 +39°C° 0 mm 3 m/S 727 mmHg 20%
12:00 +40°C° 0 mm 4 m/S 727 mmHg 20%
13:00 +40°C° 0 mm 4 m/S 726 mmHg 21%
14:00 +40°C° 0 mm 5 m/S 726 mmHg 21%
15:00 +39°C° 0 mm 5 m/S 726 mmHg 24%
16:00 +36°C° 0 mm 6 m/S 726 mmHg 28%
17:00 +35°C° 0 mm 6 m/S 725 mmHg 31%
18:00 +32°C° 0 mm 6 m/S 726 mmHg 37%
19:00 +29°C° 0 mm 5 m/S 726 mmHg 43%
20:00 +27°C° 0 mm 5 m/S 726 mmHg 50%
21:00 +27°C° 0 mm 4 m/S 726 mmHg 50%
22:00 +27°C° 0 mm 4 m/S 726 mmHg 50%
23:00 +26°C° 0 mm 3 m/S 726 mmHg 50%

15 August, Samstag

Zeit Temperatur Niederschläge Wind Luftdruck Luftfeuchtigkeit
00:00 +26°C° 0 mm 3 m/S 726 mmHg 53%
01:00 +26°C° 0 mm 3 m/S 726 mmHg 56%
02:00 +25°C° 0 mm 3 m/S 725 mmHg 60%
03:00 +25°C° 0 mm 3 m/S 725 mmHg 57%
04:00 +25°C° 0 mm 3 m/S 725 mmHg 53%
05:00 +24°C° 0 mm 3 m/S 725 mmHg 50%
06:00 +27°C° 0 mm 3 m/S 725 mmHg 43%
07:00 +29°C° 0 mm 3 m/S 725 mmHg 36%
08:00 +33°C° 0 mm 3 m/S 726 mmHg 29%
09:00 +35°C° 0 mm 3 m/S 726 mmHg 26%
10:00 +37°C° 0 mm 3 m/S 726 mmHg 23%
11:00 +38°C° 0 mm 3 m/S 726 mmHg 20%
12:00 +38°C° 0 mm 4 m/S 726 mmHg 21%
13:00 +37°C° 0 mm 5 m/S 726 mmHg 22%
14:00 +38°C° 0 mm 6 m/S 726 mmHg 23%
15:00 +36°C° 0 mm 6 m/S 725 mmHg 26%
16:00 +35°C° 0 mm 6 m/S 725 mmHg 30%
17:00 +33°C° 0 mm 7 m/S 725 mmHg 34%
18:00 +30°C° 0 mm 6 m/S 725 mmHg 42%
19:00 +28°C° 0 mm 6 m/S 725 mmHg 49%
20:00 +25°C° 0 mm 5 m/S 725 mmHg 56%
21:00 +25°C° 0 mm 5 m/S 725 mmHg 56%
22:00 +25°C° 0 mm 5 m/S 725 mmHg 56%
23:00 +25°C° 0 mm 4 m/S 725 mmHg 56%

16 August, Sonntag

Zeit Temperatur Niederschläge Wind Luftdruck Luftfeuchtigkeit
00:00 +25°C° 0 mm 4 m/S 725 mmHg 57%
01:00 +25°C° 0 mm 4 m/S 725 mmHg 58%
02:00 +25°C° 0 mm 4 m/S 724 mmHg 59%
03:00 +23°C° 0 mm 5 m/S 724 mmHg 62%
04:00 +22°C° 0 mm 5 m/S 724 mmHg 66%
05:00 +22°C° 0 mm 5 m/S 724 mmHg 69%
06:00 +25°C° 0 mm 4 m/S 724 mmHg 60%
07:00 +28°C° 0 mm 4 m/S 724 mmHg 50%
08:00 +30°C° 0 mm 4 m/S 725 mmHg 40%
09:00 +33°C° 0 mm 4 m/S 725 mmHg 36%
10:00 +35°C° 0 mm 4 m/S 725 mmHg 32%
11:00 +36°C° 0 mm 4 m/S 725 mmHg 27%
12:00 +36°C° 0 mm 4 m/S 725 mmHg 27%
13:00 +36°C° 0 mm 5 m/S 725 mmHg 27%
14:00 +36°C° 0 mm 5 m/S 725 mmHg 26%
15:00 +35°C° 0 mm 6 m/S 725 mmHg 30%
16:00 +34°C° 0 mm 6 m/S 725 mmHg 34%
17:00 +33°C° 0 mm 6 m/S 724 mmHg 37%
18:00 +29°C° 0 mm 6 m/S 725 mmHg 45%
19:00 +27°C° 0 mm 5 m/S 725 mmHg 53%
20:00 +25°C° 0 mm 5 m/S 725 mmHg 61%
21:00 +25°C° 0 mm 5 m/S 725 mmHg 61%
22:00 +25°C° 0 mm 5 m/S 725 mmHg 60%
23:00 +26°C° 0 mm 5 m/S 725 mmHg 60%

17 August, Montag

Zeit Temperatur Niederschläge Wind Luftdruck Luftfeuchtigkeit
00:00 +25°C° 0 mm 5 m/S 725 mmHg 63%
01:00 +23°C° 0 mm 5 m/S 725 mmHg 65%
02:00 +23°C° 0 mm 5 m/S 724 mmHg 68%
03:00 +22°C° 0 mm 5 m/S 724 mmHg 69%
04:00 +22°C° 0 mm 5 m/S 724 mmHg 70%
05:00 +22°C° 0 mm 5 m/S 724 mmHg 71%
06:00 +25°C° 0 mm 4 m/S 725 mmHg 61%
07:00 +27°C° 0 mm 4 m/S 725 mmHg 51%
08:00 +30°C° 0 mm 4 m/S 725 mmHg 41%
09:00 +33°C° 0 mm 4 m/S 725 mmHg 36%
10:00 +34°C° 0 mm 3 m/S 726 mmHg 31%
11:00 +36°C° 0 mm 3 m/S 726 mmHg 26%
12:00 +36°C° 0 mm 3 m/S 726 mmHg 26%
13:00 +36°C° 0 mm 4 m/S 726 mmHg 27%
14:00 +36°C° 0 mm 4 m/S 726 mmHg 28%
15:00 +35°C° 0 mm 4 m/S 726 mmHg 30%
16:00 +34°C° 0 mm 5 m/S 725 mmHg 32%
17:00 +33°C° 0 mm 5 m/S 725 mmHg 35%
18:00 +30°C° 0 mm 5 m/S 725 mmHg 42%
19:00 +28°C° 0 mm 5 m/S 726 mmHg 50%
20:00 +26°C° 0 mm 5 m/S 726 mmHg 57%
21:00 +25°C° 0 mm 5 m/S 726 mmHg 59%
22:00 +25°C° 0 mm 5 m/S 726 mmHg 61%
23:00 +25°C° 0 mm 5 m/S 726 mmHg 63%
Mehr zeigen